Tracking 31027 objects as of 19-Jul-2025
HD Live streaming from Space Station
objects crossing your sky now

FENGYUN 1C DEB

Track FENGYUN 1C DEB now!
10-day predictions


NORAD ID: 31058
Int'l Code: 1999-025BFC
Perigee: 589.3 km
Apogee: 728.6 km
Inclination: 99.6 °
Period: 97.8 minutes
Semi major axis: 7029 km
RCS: 0.0094 m2 (small)
Launch date: May 10, 1999
Source: People's Republic of China (PRC)
Launch site: Taiyaun Space Center, China (TSC)

Note: This is SATELLITE DEBRIS
Your satellite tracking list
SL-8 DEB
Track 1 satellite(s)




NASA's NSSDC Master Catalog

Two Line Element Set (TLE):
1 31058U 99025BFC 25194.04102773  .00003366  00000-0  49659-3 0  9991
2 31058  99.5530 116.1073 0099113 214.2391 145.2396 14.72901539972991
Source of the keplerian elements: AFSPC